This is the latest recevied weather packets stored in our database for station/object N5YHM-13. If no packets are shown the sender has not sent any weather packets the latest 10 day(s).
| Time | Temp. | Humidity | Pressure | Rain* | Wind** | Luminosity | Snow |
|---|---|---|---|---|---|---|---|
| 1777599590 | 20.56° C | 99% | 1012.9 hPa | 126.49 mm | - | 0 W/m² | - |
| 1777599287 | 20.56° C | 99% | 1013 hPa | 126.49 mm | - | 0 W/m² | - |
| 1777598982 | 20.56° C | 99% | 1013.1 hPa | 126.49 mm | - | 0 W/m² | - |
| 1777598680 | 20.56° C | 99% | 1012.9 hPa | 126.49 mm | - | 0 W/m² | - |
| 1777598376 | 20.56° C | 99% | 1012.5 hPa | 126.49 mm | - | 0 W/m² | - |
| 1777598075 | 21.11° C | 99% | 1012.5 hPa | 126.49 mm | - | 0 W/m² | - |
| 1777597773 | 21.11° C | 99% | 1012.5 hPa | 126.49 mm | - | 0 W/m² | - |
| 1777597469 | 21.11° C | 99% | 1012.1 hPa | 125.48 mm | - | 0 W/m² | - |
| 1777597165 | 21.11° C | 99% | 1012.5 hPa | 125.48 mm | - | 0 W/m² | - |
| 1777596861 | 21.11° C | 99% | 1012.6 hPa | 125.48 mm | - | 0 W/m² | - |
| 1777596556 | 21.67° C | 99% | 1012.9 hPa | 125.48 mm | - | 0 W/m² | - |
| 1777596254 | 21.11° C | 99% | 1013.3 hPa | 125.48 mm | - | 0 W/m² | - |
| 1777595945 | 21.67° C | 99% | 1013.5 hPa | 125.48 mm | - | 0 W/m² | - |
| 1777595644 | 21.67° C | 99% | 1013.9 hPa | 123.7 mm | - | 0 W/m² | - |
| 1777595340 | 21.67° C | 99% | 1014.2 hPa | 123.7 mm | - | 0 W/m² | - |
| 1777595036 | 21.67° C | 99% | 1014.2 hPa | 123.7 mm | - | 0 W/m² | - |
| 1777594734 | 21.67° C | 99% | 1014 hPa | 123.7 mm | - | 0 W/m² | - |
| 1777594430 | 21.67° C | 99% | 1014.1 hPa | 121.67 mm | - | 0 W/m² | - |
| 1777594125 | 21.67° C | 99% | 1014.1 hPa | 121.67 mm | - | 0 W/m² | - |
| 1777593822 | 21.67° C | 99% | 1013.8 hPa | 120.65 mm | - | 0 W/m² | - |
| 1777593518 | 22.22° C | 99% | 1013.6 hPa | 118.87 mm | - | 1 W/m² | - |
| 1777593213 | 21.67° C | 99% | 1013.7 hPa | 115.82 mm | - | 1 W/m² | - |
| 1777592912 | 21.67° C | 99% | 1013.9 hPa | 115.82 mm | - | 1 W/m² | - |
| 1777592603 | 21.67° C | 99% | 1013.8 hPa | 114.55 mm | - | 1 W/m² | - |
| 1777592298 | 22.22° C | 99% | 1013.8 hPa | 112.78 mm | - | 1 W/m² | - |
* Rain latest hour (hover to see other rain measurements)
** Current wind speed in m/s (hover to see current wind gust speed)